Marathon, FL

9:41 PM EDT on May 26, 2018 (GMT -0400)
Florida Keys Marathon

Weather History for KMTH - May, 2014

Change the Weather History Date:

Wednesday, May 14, 2014

  Actual Average Record
Temperature  
Mean Temperature 82 °F 81 °F  
Max Temperature 87 °F 86 °F 93 °F (1998)
Min Temperature 76 °F 76 °F 70 °F (2001)
Degree Days  
Heating Degree Days 0 0  
Month to date heating degree days 0 0  
Since 1 July heating degree days 35 81  
Cooling Degree Days 17 16  
Month to date cooling degree days 246 208  
Year to date cooling degree days 1505 1244  
Growing Degree Days 30 (Base 50)    
Moisture  
Dew Point 74 °F    
Average Humidity 78    
Maximum Humidity 85    
Minimum Humidity 70    
Precipitation  
Precipitation 0.35 in 0.11 in 0.84 in (2017)
Month to date precipitation 0.71 1.51  
Year to date precipitation 6.22 10.10  
Snow  
Snow 0.00 in - - ()
Month to date snowfall 0.0  
Since 1 July snowfall 0.0  
Snow Depth 0.00 in    
Sea Level Pressure  
Sea Level Pressure 29.98 in    
Wind  
Wind Speed 11 mph (ESE)    
Max Wind Speed 20 mph    
Max Gust Speed 30 mph    
Visibility 8 miles    
Events Rain    
T = Trace of Precipitation, MM = Missing Value Source: NWS Daily Summary

Daily Weather History Graph

Daily Weather History Graph

Search for Another Location

Airport or City:

Astronomy

May. 14, 2014 Rise Set
Actual Time 6:40 AM EDT 8:00 PM EDT
Civil Twilight 6:16 AM EDT 8:25 PM EDT
Nautical Twilight 5:46 AM EDT 8:54 PM EDT
Astronomical Twilight 5:16 AM EDT 9:24 PM EDT
Moon 8:07 PM EDT (5/14) 6:33 AM EDT (5/14)
Length of Visible Light 14h 08m
Length of Day
13h 19m
Full, 100% of the Moon is Illuminated
May 14
Full
May 14
Full
May 21
Last Quarter
May 28
New
Jun 5
First Quarter

Hourly Weather History & Observations

Time (EDT) Temp. Heat Index Dew Point Humidity Pressure Visibility Wind Dir Wind Speed Gust Speed Precip Events Conditions
12:38 AM 80.1 °F 84.2 °F 73.0 °F 79% 30.00 in 10.0 mi East 11.5 mph 21.9 mph N/A   Mostly Cloudy
12:53 AM 80.1 °F 84.2 °F 73.0 °F 79% 29.99 in 10.0 mi East 10.4 mph 19.6 mph N/A   Mostly Cloudy
1:53 AM 80.1 °F 84.2 °F 73.0 °F 79% 29.98 in 10.0 mi ESE 13.8 mph 24.2 mph N/A   Scattered Clouds
2:53 AM 79.0 °F - 73.0 °F 82% 29.97 in 10.0 mi ESE 10.4 mph 18.4 mph N/A   Partly Cloudy
3:53 AM 79.0 °F - 73.9 °F 84% 29.96 in 10.0 mi ESE 4.6 mph - 0.00 in   Partly Cloudy
5:53 AM 79.0 °F - 73.9 °F 84% 29.96 in 10.0 mi East 6.9 mph - N/A   Mostly Cloudy
6:02 AM 77.0 °F - 72.0 °F 84% 29.96 in 10.0 mi East 11.5 mph 20.7 mph N/A   Mostly Cloudy
6:09 AM 77.0 °F - 72.0 °F 84% 29.97 in 10.0 mi East 8.1 mph - N/A   Scattered Clouds
6:53 AM 78.1 °F - 73.0 °F 84% 29.97 in 10.0 mi SE 10.4 mph 20.7 mph N/A   Scattered Clouds
7:53 AM 78.1 °F - 73.0 °F 84% 29.99 in 10.0 mi East 9.2 mph 21.9 mph N/A   Mostly Cloudy
8:39 AM 79.0 °F - 73.0 °F 82% 30.01 in 10.0 mi ESE 13.8 mph 24.2 mph N/A   Mostly Cloudy
8:53 AM 80.1 °F 84.2 °F 73.0 °F 79% 30.01 in 10.0 mi ESE 12.7 mph 25.3 mph N/A   Mostly Cloudy
9:53 AM 81.0 °F 85.2 °F 72.0 °F 74% 30.01 in 10.0 mi SE 15.0 mph 23.0 mph N/A   Clear
11:53 AM 81.0 °F 86.2 °F 73.9 °F 79% 30.02 in 10.0 mi ESE 10.4 mph 18.4 mph N/A   Scattered Clouds
12:53 PM 84.0 °F 91.2 °F 73.9 °F 72% 30.01 in 10.0 mi ESE 9.2 mph 21.9 mph 0.00 in   Clear
1:53 PM 84.9 °F 93.3 °F 75.0 °F 72% 29.99 in 10.0 mi ESE 12.7 mph 20.7 mph N/A   Scattered Clouds
2:44 PM 82.9 °F 89.4 °F 73.9 °F 74% 29.98 in 10.0 mi SE 16.1 mph 25.3 mph N/A   Mostly Cloudy
2:48 PM 80.6 °F 85.4 °F 73.4 °F 79% 29.99 in 1.2 mi ESE 16.1 mph 29.9 mph 0.08 in Rain Light Rain
2:53 PM 77.0 °F - 73.9 °F 90% 29.98 in 0.8 mi ESE 13.8 mph 29.9 mph 0.09 in Rain Rain
2:58 PM 77.0 °F - 73.9 °F 90% 29.98 in 2.0 mi East 9.2 mph 24.2 mph 0.01 in Rain Light Rain
3:00 PM 78.1 °F - 75.0 °F 90% 29.98 in 4.0 mi ESE 8.1 mph 21.9 mph 0.01 in Rain Light Rain
3:07 PM 79.0 °F - 75.9 °F 90% 29.97 in 2.0 mi SE 16.1 mph 25.3 mph 0.03 in Rain Rain
3:09 PM 78.1 °F - 75.9 °F 93% 29.97 in 0.8 mi SE 19.6 mph 27.6 mph 0.10 in Rain Heavy Rain
3:27 PM 77.0 °F - 75.0 °F 94% 29.97 in 2.0 mi ESE 15.0 mph 25.3 mph 0.26 in Rain Light Rain
3:35 PM 78.1 °F - 75.9 °F 93% 29.97 in 5.0 mi ESE 15.0 mph 24.2 mph 0.26 in Rain Light Rain
3:53 PM 77.0 °F - 72.0 °F 84% 29.96 in 10.0 mi ESE 11.5 mph 24.2 mph 0.26 in   Mostly Cloudy
5:53 PM 82.0 °F 87.9 °F 73.9 °F 76% 29.94 in 10.0 mi ESE 11.5 mph 20.7 mph N/A   Clear
6:53 PM 81.0 °F 86.2 °F 73.9 °F 79% 29.95 in 10.0 mi ESE 9.2 mph 18.4 mph N/A   Clear
7:53 PM 80.1 °F 84.2 °F 73.0 °F 79% 29.96 in 10.0 mi ESE 11.5 mph 16.1 mph N/A   Clear
8:53 PM 80.1 °F 84.5 °F 73.9 °F 81% 29.99 in 10.0 mi ESE 11.5 mph 17.3 mph N/A   Clear
9:53 PM 80.1 °F 84.5 °F 73.9 °F 81% 30.00 in 10.0 mi SE 13.8 mph 21.9 mph N/A   Clear
10:53 PM 80.1 °F 84.5 °F 73.9 °F 81% 30.00 in 10.0 mi SE 11.5 mph 19.6 mph N/A   Partly Cloudy
11:53 PM 80.1 °F 84.2 °F 73.0 °F 79% 30.01 in 10.0 mi SE 11.5 mph 21.9 mph N/A   Mostly Cloudy